This is the latest recevied weather packets stored in our database for station/object N5AJY. If no packets are shown the sender has not sent any weather packets the latest 10 day(s).
| Time | Temp. | Humidity | Pressure | Rain* | Wind** | Luminosity | Snow |
|---|---|---|---|---|---|---|---|
| 1777666614 | 20° C | 36% | 1013.8 hPa | 0 mm | - | - | - |
| 1777666313 | 20° C | 35% | 1013.9 hPa | 0 mm | - | - | - |
| 1777666014 | 19.44° C | 38% | 1013.9 hPa | 0 mm | - | - | - |
| 1777665713 | 19.44° C | 40% | 1014.1 hPa | 0 mm | - | - | - |
| 1777665113 | 20° C | 38% | 1014.4 hPa | 0 mm | - | - | - |
| 1777664814 | 19.44° C | 38% | 1014.4 hPa | 0 mm | - | - | - |
| 1777664513 | 19.44° C | 38% | 1014.5 hPa | 0 mm | - | - | - |
| 1777664214 | 19.44° C | 40% | 1014.6 hPa | 0 mm | - | - | - |
| 1777663913 | 20° C | 42% | 1014.8 hPa | 0 mm | - | - | - |
| 1777663613 | 20° C | 37% | 1014.7 hPa | 0 mm | - | - | - |
| 1777663314 | 20° C | 43% | 1014.8 hPa | 0 mm | - | - | - |
| 1777663013 | 19.44° C | 39% | 1015 hPa | 0 mm | - | - | - |
| 1777662714 | 19.44° C | 41% | 1015.1 hPa | 0 mm | - | - | - |
| 1777662413 | 19.44° C | 42% | 1015 hPa | 0 mm | - | - | - |
| 1777662113 | 18.89° C | 43% | 1015.1 hPa | 0 mm | - | - | - |
| 1777661814 | 19.44° C | 42% | 1015.1 hPa | 0 mm | - | - | - |
| 1777661513 | 19.44° C | 43% | 1015.2 hPa | 0 mm | - | - | - |
| 1777661215 | 19.44° C | 45% | 1015.3 hPa | 0 mm | - | - | - |
| 1777660913 | 19.44° C | 44% | 1015.3 hPa | 0 mm | - | - | - |
| 1777660614 | 18.89° C | 43% | 1015.4 hPa | 0 mm | - | - | - |
| 1777660313 | 18.89° C | 44% | 1015.4 hPa | 0 mm | - | - | - |
| 1777660015 | 19.44° C | 46% | 1015.5 hPa | 0 mm | - | - | - |
| 1777659713 | 18.89° C | 47% | 1015.6 hPa | 0 mm | - | - | - |
| 1777659413 | 18.89° C | 48% | 1015.6 hPa | 0 mm | - | - | - |
| 1777659114 | 18.89° C | 48% | 1015.6 hPa | 0 mm | - | - | - |
* Rain latest hour (hover to see other rain measurements)
** Current wind speed in m/s (hover to see current wind gust speed)